Weather History for Columbia, MO

Change the Weather History Date:

Monday, July 9, 2012

  Actual Average Record
Temperature  
Mean Temperature 82 °F 77 °F  
Max Temperature 91 °F 87 °F 106 °F (1901)
Min Temperature 72 °F 67 °F 47 °F (1891)
Degree Days  
Heating Degree Days 0 0  
Month to date heating degree days 0 0  
Since 1 June heating degree days 7 11  
Since 1 July heating degree days 0 0  
Cooling Degree Days 17 12  
Month to date cooling degree days 204 108  
Year to date cooling degree days 858 459  
Since 1 June cooling degree days 573 356  
Growing Degree Days 32 (Base 50)    
Moisture  
Dew Point 66 °F    
Average Humidity 63    
Maximum Humidity 93    
Minimum Humidity 32    
Precipitation  
Precipitation 0.49 in 0.16 in 2.14 in (1942)
Month to date precipitation 1.15 1.37  
Year to date precipitation 19.87 22.39  
Snow  
Snow 0.00 in 0.00 in 0.00 in (2013)
Month to date snowfall 0.0 0.0  
Since 1 June snowfall 0.0 0.0  
Since 1 July snowfall 0.0 0.0  
Snow Depth 0.00 in    
Sea Level Pressure  
Sea Level Pressure 30.02 in    
Wind  
Wind Speed 5 mph (ENE)    
Max Wind Speed 16 mph    
Max Gust Speed 18 mph    
Visibility 7 miles    
Events Rain , Thunderstorm    
T = Trace of Precipitation, MM = Missing Value Source: NWS Daily Summary

Daily Weather History Graph

Daily Weather History Graph

Search for Another Location

Airport:

Trip Planner

Search our weather history database for the weather conditions in past years. The results will help you decide how hot, cold, wet, or windy it might be!

Date:

Astronomy

Jul. 09, 2012 Rise Set
Actual Time 5:52 AM CDT 8:35 PM CDT
Civil Twilight 5:20 AM CDT 9:07 PM CDT
Nautical Twilight 4:41 AM CDT 9:46 PM CDT
Astronomical Twilight 3:56 AM CDT 10:30 PM CDT
Moon 11:56 PM CDT (7/9) 12:15 PM CDT (7/9)
Length of Visible Light 15h 46m
Length of Day
14h 43m
Waning Gibbous, 63% of the Moon is Illuminated
Jul 9
Waning Gibbous
Jul 10
Last Quarter
Jul 18
New
Jul 26
First Quarter
Aug 1
Full

Hourly Weather History & Observations

Time (CDT) Temp. Heat Index Dew Point Humidity Pressure Visibility Wind Dir Wind Speed Gust Speed Precip Events Conditions
12:04 AM 73.4 °F - 71.6 °F 94% 30.04 in 1.0 mi South 13.8 mph - 0.44 in Rain Heavy Rain
12:09 AM 73.4 °F - 71.6 °F 94% 30.05 in 2.0 mi SSE 12.7 mph - 0.53 in Rain Rain
12:17 AM 73.4 °F - 71.6 °F 94% 30.05 in 9.0 mi South 11.5 mph - 0.55 in Rain Light Rain
12:29 AM 73.4 °F - 71.6 °F 94% 30.05 in 10.0 mi South 8.1 mph - 0.55 in   Overcast
12:54 AM 73.9 °F - 71.1 °F 91% 30.02 in 10.0 mi South 6.9 mph - 0.55 in   Overcast
1:24 AM 73.4 °F - 71.6 °F 94% 30.07 in 10.0 mi East 5.8 mph - 0.00 in Rain , Thunderstorm Light Rain
1:44 AM 73.4 °F - 71.6 °F 94% 30.05 in 1.5 mi South 15.0 mph - 0.00 in Rain , Thunderstorm Heavy Thunderstorms and Rain
1:54 AM 73.0 °F - 68.0 °F 84% 30.03 in 1.8 mi SE 9.2 mph - 0.40 in Rain , Thunderstorm Heavy Thunderstorms and Rain
1:57 AM 73.4 °F - 69.8 °F 88% 30.06 in 3.0 mi ESE 8.1 mph - 0.02 in Rain , Thunderstorm Light Thunderstorms and Rain
2:10 AM 73.4 °F - 71.6 °F 94% 30.07 in 6.0 mi SE 6.9 mph - 0.05 in Rain Rain
2:54 AM 73.0 °F - 71.1 °F 93% 30.01 in 10.0 mi Calm Calm - 0.09 in Rain Light Rain
3:47 AM 73.4 °F - 71.6 °F 94% 30.04 in 7.0 mi NE 3.5 mph - 0.00 in   Scattered Clouds
3:54 AM 73.0 °F - 71.1 °F 93% 30.01 in 6.0 mi ENE 3.5 mph - 0.00 in   Partly Cloudy
4:11 AM 73.4 °F - 71.6 °F 94% 30.03 in 5.0 mi NE 5.8 mph - N/A   Mostly Cloudy
4:30 AM 71.6 °F - 69.8 °F 94% 30.03 in 6.0 mi Calm Calm - N/A   Scattered Clouds
4:54 AM 72.0 °F - 70.0 °F 93% 30.01 in 5.0 mi Calm Calm - N/A   Clear
5:03 AM 71.6 °F - 69.8 °F 94% 30.03 in 3.0 mi North 3.5 mph - N/A   Partly Cloudy
5:10 AM 71.6 °F - 69.8 °F 94% 30.03 in 1.8 mi Calm Calm - N/A   Mostly Cloudy
5:26 AM 71.6 °F - 69.8 °F 94% 30.03 in 0.8 mi North 5.8 mph - N/A   Mist
5:46 AM 71.6 °F - 69.8 °F 94% 30.04 in 1.8 mi NNW 4.6 mph - N/A   Mostly Cloudy
5:51 AM 71.6 °F - 69.8 °F 94% 30.04 in 2.0 mi NNW 5.8 mph - N/A   Scattered Clouds
5:54 AM 72.0 °F - 70.0 °F 93% 30.01 in 2.5 mi NNW 5.8 mph - N/A   Scattered Clouds
6:10 AM 71.6 °F - 69.8 °F 94% 30.05 in 3.0 mi NNW 5.8 mph - N/A   Clear
6:54 AM 72.0 °F - 70.0 °F 93% 30.03 in 5.0 mi Calm Calm - N/A   Clear
7:54 AM 73.9 °F - 71.1 °F 91% 30.02 in 7.0 mi East 3.5 mph - N/A   Clear
8:54 AM 77.0 °F - 71.1 °F 82% 30.03 in 10.0 mi East 5.8 mph - N/A   Clear
9:54 AM 79.0 °F - 69.1 °F 72% 30.04 in 10.0 mi Variable 5.8 mph - N/A   Overcast
10:54 AM 81.0 °F 81.6 °F 60.1 °F 49% 30.05 in 10.0 mi ENE 8.1 mph - N/A   Overcast
11:54 AM 82.9 °F 83.2 °F 60.1 °F 46% 30.05 in 10.0 mi Calm Calm - N/A   Overcast
12:54 PM 87.1 °F 85.9 °F 57.0 °F 36% 30.03 in 10.0 mi NE 10.4 mph - N/A   Clear
1:54 PM 88.0 °F 87.1 °F 59.0 °F 37% 30.02 in 10.0 mi NE 6.9 mph - N/A   Clear
2:54 PM 89.1 °F 87.1 °F 55.0 °F 31% 30.01 in 10.0 mi NE 6.9 mph 16.1 mph N/A   Clear
3:54 PM 89.1 °F 87.7 °F 57.0 °F 34% 29.99 in 10.0 mi ENE 5.8 mph - N/A   Clear
4:54 PM 90.0 °F 88.8 °F 57.9 °F 34% 29.98 in 10.0 mi NE 8.1 mph - N/A   Clear
5:54 PM 89.1 °F 88.0 °F 57.9 °F 35% 29.97 in 10.0 mi ENE 9.2 mph - N/A   Clear
6:54 PM 88.0 °F 87.6 °F 60.1 °F 39% 29.97 in 10.0 mi NE 6.9 mph - N/A   Clear
7:54 PM 84.0 °F 83.8 °F 59.0 °F 43% 29.97 in 10.0 mi NE 6.9 mph - N/A   Clear
8:54 PM 79.0 °F - 61.0 °F 54% 29.98 in 10.0 mi NE 5.8 mph - N/A   Clear
9:54 PM 78.1 °F - 61.0 °F 56% 30.00 in 10.0 mi ENE 5.8 mph - N/A   Clear
10:54 PM 75.9 °F - 60.1 °F 58% 30.01 in 10.0 mi East 4.6 mph - N/A   Clear
11:54 PM 73.0 °F - 60.1 °F 64% 30.01 in 10.0 mi ENE 4.6 mph - N/A   Clear